Location: Jackson Park
(37.2862°N, 79.9123°W)
Time: 13:59:19
(UTC+00:00)

Vanguard 2 Rocket - Pass Details

Date: 13 May 2026
Orbit: 553 x 3286 km, 32.9° (Epoch: 6 June)

Event Time Altitude Azimuth Distance (km) Brightness Sun altitude
Rises 22:00:03 0° 283° (WNW) 7,036 12.7 26.0°
Reaches altitude 10° 22:04:46 10° 279° (W) 6,155 13.1 25.1°
Maximum altitude 22:23:36 51° 211° (SSW) 3,632 10.5 21.3°
Drops below altitude 10° 22:38:46 10° 141° (SE) 5,030 10.3 18.4°
Sets 22:42:12 0° 136° (SE) 5,722 10.5 17.7°
